This is the latest recevied weather packets stored in our database for station/object OK2ZAW-19. If no packets are shown the sender has not sent any weather packets the latest 10 day(s).
| Time | Temp. | Humidity | Pressure | Rain* | Wind** | Luminosity | Snow |
|---|---|---|---|---|---|---|---|
| 1777735155 | 27.22° C | 26% | 1021.8 hPa | - | - | 337 W/m² | - |
| 1777734842 | 27.22° C | 25% | 1021.8 hPa | - | - | 337 W/m² | - |
| 1777734530 | 27.22° C | 25% | 1021.9 hPa | - | - | 337 W/m² | - |
| 1777734218 | 26.67° C | 26% | 1022 hPa | - | - | 338 W/m² | - |
| 1777733905 | 26.11° C | 27% | 1022 hPa | - | - | 337 W/m² | - |
| 1777733593 | 26.11° C | 26% | 1022.1 hPa | - | - | 337 W/m² | - |
| 1777733281 | 26.11° C | 27% | 1022.1 hPa | - | - | 337 W/m² | - |
| 1777732657 | 25.56° C | 27% | 1022.1 hPa | - | - | 337 W/m² | - |
| 1777732345 | 25.56° C | 27% | 1022.2 hPa | - | - | 337 W/m² | - |
| 1777732033 | 25.56° C | 27% | 1022.2 hPa | - | - | 337 W/m² | - |
| 1777731721 | 25.56° C | 26% | 1022.3 hPa | - | - | 337 W/m² | - |
| 1777731408 | 26.11° C | 26% | 1022.3 hPa | - | - | 337 W/m² | - |
| 1777731096 | 26.11° C | 26% | 1022.4 hPa | - | - | 337 W/m² | - |
| 1777730784 | 26.11° C | 25% | 1022.4 hPa | - | - | 337 W/m² | - |
| 1777730472 | 26.11° C | 28% | 1022.5 hPa | - | - | 337 W/m² | - |
| 1777730159 | 25.56° C | 28% | 1022.5 hPa | - | - | 338 W/m² | - |
| 1777729847 | 25.56° C | 27% | 1022.6 hPa | - | - | 337 W/m² | - |
| 1777729223 | 26.11° C | 28% | 1022.7 hPa | - | - | 337 W/m² | - |
| 1777728911 | 25.56° C | 29% | 1022.7 hPa | - | - | 338 W/m² | - |
| 1777727975 | 24.44° C | 29% | 1022.8 hPa | - | - | 338 W/m² | - |
| 1777727663 | 23.89° C | 30% | 1022.9 hPa | - | - | 337 W/m² | - |
| 1777727351 | 23.33° C | 30% | 1023 hPa | - | - | 337 W/m² | - |
| 1777727039 | 23.33° C | 32% | 1023.3 hPa | - | - | 337 W/m² | - |
| 1777726727 | 22.78° C | 30% | 1023.3 hPa | - | - | 338 W/m² | - |
| 1777726415 | 22.22° C | 30% | 1023.3 hPa | - | - | 337 W/m² | - |
* Rain since midnight (hover to see other rain measurements)
** Current wind speed in m/s (hover to see current wind gust speed)